Location: Newark
(49.8969°N, 3.3422°E)
Time: 01:08:20
(UTC+00:00)

Explorer 7 - Pass Details

Date: 01 February 2020
Orbit: 485 x 679 km, 50.3° (Epoch: 27 February)

Event Time Altitude Azimuth Distance (km) Brightness Sun altitude
Rises 02:25:49 0° 280° (W) 2,554 - -46.2°
Reaches altitude 10° 02:28:48 10° 254° (WSW) 1,681 - -45.8°
Maximum altitude 02:30:50 14° 221° (SW) 1,451 - -45.6°
Drops below altitude 10° 02:32:55 10° 188° (S) 1,706 - -45.3°
Sets 02:35:58 0° 163° (SSE) 2,619 - -44.9°
